KN6CRX-10 Weather Reports


time (UTC)temp
F
wind
direction
speed
knots
gust
knots
rain 1hr
in
rain 24hr
in
rain mn
in
humidity
%
barometer
mb
20260901160914 67 90 0.9 0.9 0.00 0.01 0.01 64 1020.2
20260901160411 66 102 0.0 0.0 0.00 0.01 0.01 69 1020.1
20260901155910 65 102 0.0 0.0 0.00 0.01 0.01 70 1020.3
20260901155410 64 148 0.0 0.0 0.00 0.01 0.01 72 1020.2
20260901154907 64 149 0.0 0.0 0.00 0.01 0.01 72 1020.5
20260901154405 63 155 1.7 1.7 0.00 0.01 0.01 75 1020.2
20260901153901 63 133 0.9 0.9 0.00 0.01 0.01 77 1020.3
20260901153400 62 153 0.0 0.0 0.00 0.01 0.01 80 1020.3
20260901152900 61 167 0.9 0.9 0.00 0.01 0.01 80 1020.5
20260901152354 61 167 0.9 0.9 0.00 0.01 0.01 81 1020.3
20260901151850 60 168 0.9 0.9 0.00 0.01 0.01 84 1020.3
20260901151350 60 183 0.9 0.9 0.00 0.01 0.01 84 1020.2
20260901150849 60 183 0.0 0.0 0.00 0.01 0.01 84 1020.3
20260901150347 60 183 0.9 0.9 0.00 0.01 0.01 85 1020.3
20260901145844 60 183 0.0 0.0 0.00 0.01 0.01 87 1020.5
20260901145344 59 183 0.0 0.0 0.00 0.01 0.01 87 1020.5
20260901144839 59 183 0.9 0.9 0.00 0.01 0.01 87 1020.6
20260901144335 59 183 0.0 0.0 0.00 0.01 0.01 87 1020.6
20260901143831 58 183 0.0 0.0 0.00 0.01 0.01 89 1020.6
20260901143326 58 183 0.0 0.0 0.00 0.01 0.01 89 1020.5
20260901142823 58 183 0.0 0.0 0.00 0.01 0.01 89 1020.0
20260901142322 57 183 0.0 0.0 0.00 0.01 0.01 91 1020.3
20260901141817 57 183 0.0 0.0 0.00 0.01 0.01 92 1020.2
20260901141312 57 183 0.0 0.0 0.00 0.01 0.01 94 1020.2
20260901140811 57 183 0.0 0.0 0.00 0.01 0.01 95 1020.1
20260901140309 56 183 0.0 0.0 0.00 0.01 0.01 95 1020.2
20260901135804 56 183 0.0 0.0 0.00 0.01 0.01 95 1019.9
20260901135259 56 183 0.0 0.0 0.00 0.01 0.01 95 1020.2
20260901134755 55 183 0.0 0.0 0.00 0.01 0.01 96 1019.9
20260901134255 55 183 0.0 0.0 0.00 0.01 0.01 96 1020.0
20260901133754 55 183 0.0 0.0 0.00 0.01 0.01 96 1020.0
20260901133254 55 183 0.0 0.0 0.00 0.01 0.01 96 1019.9
20260901132753 55 183 0.0 0.0 0.00 0.01 0.01 96 1019.9
20260901132248 55 184 0.9 0.9 0.00 0.01 0.01 96 1020.0
20260901131743 55 183 0.0 0.0 0.00 0.01 0.01 97 1020.1
20260901131242 55 183 0.0 0.0 0.00 0.01 0.01 97 1020.2
20260901130737 54 183 0.0 0.0 0.00 0.01 0.01 97 1020.0
20260901130237 54 184 0.0 0.0 0.00 0.01 0.01 97 1020.1
20260901125735 55 184 0.0 0.0 0.00 0.01 0.01 97 1019.9
20260901125230 55 184 0.0 0.0 0.00 0.01 0.01 96 1019.9
20260901124730 55 184 0.0 0.0 0.00 0.01 0.01 96 1020.0
20260901124225 55 184 0.0 0.0 0.00 0.01 0.01 96 1020.0
20260901123724 55 184 0.0 0.0 0.00 0.01 0.01 96 1019.9
20260901123219 55 184 0.0 0.0 0.00 0.01 0.01 95 1020.1
20260901122718 55 184 0.0 0.0 0.00 0.01 0.01 95 1020.1
20260901122213 55 184 0.0 0.0 0.00 0.01 0.01 95 1019.9
20260901121707 55 184 0.0 0.0 0.00 0.01 0.01 95 1020.1
20260901121203 56 184 0.0 0.0 0.00 0.01 0.01 94 1020.0
20260901120701 56 184 0.0 0.0 0.00 0.01 0.01 94 1020.0
20260901120157 56 184 0.0 0.0 0.00 0.01 0.01 94 1020.0
20260901115652 57 184 0.0 0.0 0.00 0.01 0.01 94 1019.9
20260901115148 57 184 0.9 0.9 0.00 0.01 0.01 94 1019.9
20260901114645 57 166 1.7 1.7 0.00 0.01 0.01 93 1020.0
20260901114144 57 160 0.9 0.9 0.00 0.01 0.01 93 1020.0
20260901113643 57 160 0.9 0.9 0.00 0.01 0.01 93 1019.8
20260901113139 57 141 0.0 0.0 0.00 0.01 0.01 93 1020.0
20260901112638 57 141 0.0 0.0 0.00 0.01 0.01 93 1019.9
20260901112138 57 141 0.0 0.0 0.00 0.01 0.01 93 1020.0
20260901111637 57 141 0.0 0.0 0.00 0.01 0.01 93 1019.7
20260901111132 57 141 0.0 0.0 0.00 0.01 0.01 93 1019.9
20260901110627 58 141 0.0 0.0 0.00 0.01 0.01 93 1019.7
20260901110122 58 141 0.0 0.0 0.00 0.01 0.01 93 1019.8
20260901105619 58 141 0.0 0.0 0.00 0.01 0.01 93 1019.9
20260901105118 58 141 0.0 0.0 0.00 0.01 0.01 93 1019.9
20260901104614 58 141 0.0 0.0 0.00 0.01 0.01 93 1019.9
20260901104109 58 141 0.0 0.0 0.00 0.01 0.01 93 1019.9
20260901103609 58 141 0.0 0.0 0.00 0.01 0.01 92 1020.2
20260901103104 58 141 0.0 0.0 0.00 0.01 0.01 91 1020.0
20260901102605 58 141 0.0 0.0 0.00 0.01 0.01 92 1020.0
20260901102104 58 141 0.0 0.0 0.00 0.01 0.01 92 1019.8
20260901101601 58 141 0.0 0.0 0.00 0.01 0.01 92 1019.8
20260901101059 58 141 0.0 0.0 0.00 0.01 0.01 93 1020.0
20260901100559 58 141 0.0 0.0 0.07 0.01 0.01 93 1019.9
20260901100054 58 141 0.0 0.0 0.07 0.01 0.01 93 1019.8
20260901095552 58 141 0.0 0.0 0.07 0.01 0.01 92 1020.1
20260901095050 58 141 0.0 0.0 0.00 0.00 0.00 92 1019.8
20260901094545 58 141 0.0 0.0 0.00 0.00 0.00 92 1020.0
20260901094045 58 141 0.0 0.0 0.00 0.00 0.00 91 1019.9
20260901093539 58 141 0.0 0.0 0.00 0.00 0.00 91 1019.8
20260901093034 58 141 0.0 0.0 0.00 0.00 0.00 89 1020.0
20260901092530 59 141 0.0 0.0 0.00 0.00 0.00 88 1020.0
20260901092026 59 141 0.0 0.0 0.00 0.00 0.00 87 1019.9
20260901091522 59 141 0.0 0.0 0.00 0.00 0.00 85 1019.9
20260901091021 60 141 0.0 0.0 0.00 0.00 0.00 82 1019.9
20260901090521 60 141 0.0 0.0 0.00 0.00 0.00 79 1020.0
20260901090017 60 141 0.0 0.0 0.00 0.00 0.00 78 1019.9
20260901085512 60 141 0.9 0.9 0.00 0.00 0.00 77 1019.9
20260901085009 60 141 0.9 0.9 0.00 0.00 0.00 78 1019.9
20260901084504 60 141 0.9 0.9 0.00 0.00 0.00 77 1020.0
20260901084001 60 141 0.0 0.0 0.00 0.00 0.00 77 1019.9
20260901083500 60 141 0.0 0.0 0.00 0.00 0.00 76 1019.9
20260901082958 61 141 0.0 0.0 0.00 0.00 0.00 76 1019.8
20260901082454 61 141 0.0 0.0 0.00 0.00 0.00 75 1020.0
20260901081949 61 141 0.0 0.0 0.00 0.00 0.00 75 1019.9
20260901081444 61 141 0.0 0.0 0.00 0.00 0.00 73 1019.9
20260901080939 61 141 0.0 0.0 0.00 0.00 0.00 74 1020.0
20260901080438 61 141 0.0 0.0 0.00 0.00 0.00 74 1019.9
20260901075938 61 141 0.0 0.0 0.00 0.00 0.00 74 1019.8
20260901075434 61 141 0.9 0.9 0.00 0.00 0.00 74 1020.1
20260901074933 61 141 0.0 0.0 0.00 0.00 0.00 75 1019.7
20260901074433 61 141 0.0 0.0 0.00 0.00 0.00 75 1019.7
20260901073928 61 141 0.0 0.0 0.00 0.00 0.00 75 1019.8
20260901073426 61 141 0.0 0.0 0.00 0.00 0.00 76 1019.9
20260901072925 61 141 0.0 0.0 0.00 0.00 0.00 75 1019.7
20260901072420 61 147 0.0 0.0 0.00 0.00 0.00 76 1019.8
20260901071915 60 151 0.0 0.0 0.00 0.00 0.00 77 1019.8
20260901071414 60 155 0.9 0.9 0.00 0.00 0.00 77 1020.2
20260901070914 60 165 0.0 0.0 0.00 0.00 0.00 80 1019.9
20260901070409 59 165 0.0 0.0 0.00 0.00 0.00 80 1020.0
20260901065908 59 165 0.0 0.0 0.00 0.00 0.00 80 1019.9
20260901065403 60 165 0.0 0.0 0.00 0.00 0.00 81 1020.2
20260901064859 60 166 0.0 0.0 0.00 0.00 0.00 80 1020.1
20260901064355 60 166 0.0 0.0 0.00 0.00 0.00 80 1020.2
20260901063852 60 166 0.9 0.9 0.00 0.00 0.00 78 1020.0
20260901063348 60 152 1.7 1.7 0.00 0.00 0.00 76 1020.2
20260901062844 60 155 1.7 1.7 0.00 0.00 0.00 76 1020.6
20260901062340 60 145 0.9 0.9 0.00 0.00 0.00 76 1020.2
20260901061835 61 145 0.9 0.9 0.00 0.00 0.00 76 1020.1
20260901061331 61 145 0.0 0.0 0.00 0.00 0.00 74 1020.1
20260901060826 61 145 0.0 0.0 0.00 0.00 0.00 74 1020.2
20260901060322 62 148 0.9 0.9 0.00 0.00 0.00 70 1020.2
20260901055821 62 149 0.0 0.0 0.00 0.00 0.00 70 1019.9
20260901055318 62 148 1.7 1.7 0.00 0.00 0.00 69 1020.2
20260901054814 62 144 0.9 0.9 0.00 0.00 0.00 72 1020.0
20260901054311 62 145 0.0 0.0 0.00 0.00 0.00 74 1020.0
20260901053806 62 145 0.0 0.0 0.00 0.00 0.00 73 1020.0
20260901053302 62 145 0.0 0.0 0.00 0.00 0.00 71 1020.1
20260901052757 61 145 0.0 0.0 0.00 0.00 0.00 71 1020.0
20260901052252 61 145 0.0 0.0 0.00 0.00 0.00 71 1020.1
20260901051751 61 145 0.0 0.0 0.00 0.00 0.00 71 1020.2
20260901051246 61 145 0.0 0.0 0.00 0.00 0.00 71 1020.2
20260901050741 61 145 0.0 0.0 0.00 0.00 0.00 72 1020.3
20260901050237 61 145 0.0 0.0 0.00 0.00 0.00 72 1020.1
20260901045732 61 145 0.0 0.0 0.00 0.00 0.00 73 1020.5
20260901045227 61 145 0.0 0.0 0.00 0.00 0.00 73 1020.2
20260901044722 61 147 0.0 0.0 0.00 0.00 0.00 73 1020.0
20260901044218 61 147 0.0 0.0 0.00 0.00 0.00 73 1020.1
20260901043714 61 149 0.0 0.0 0.00 0.00 0.00 73 1020.0
20260901043209 61 151 0.0 0.0 0.00 0.00 0.00 72 1020.2
20260901042708 61 151 0.0 0.0 0.00 0.00 0.00 72 1020.1
20260901042203 61 156 0.9 0.9 0.00 0.00 0.00 72 1020.2
20260901041700 61 151 0.9 0.9 0.00 0.00 0.00 72 1020.3
20260901041159 61 188 1.7 1.7 0.00 0.00 0.00 71 1020.2
20260901040654 61 203 0.9 0.9 0.00 0.00 0.00 71 1020.0
20260901040153 61 206 3.5 3.5 0.00 0.00 0.00 70 1020.2
20260901035651 61 190 3.5 5.2 0.00 0.00 0.00 70 1020.0
20260901035151 61 163 1.7 1.7 0.00 0.00 0.00 72 1020.1
20260901034650 61 157 2.6 2.6 0.00 0.00 0.00 73 1020.0
20260901034150 61 167 0.9 0.9 0.00 0.00 0.00 73 1020.0
20260901033650 61 152 1.7 2.6 0.00 0.00 0.00 73 1019.9
20260901033149 61 172 0.9 1.7 0.00 0.00 0.00 74 1020.2
20260901032648 61 160 2.6 5.2 0.00 0.00 0.00 74 1020.2
20260901032143 60 223 5.2 7.0 0.00 0.00 0.00 76 1020.1
20260901031638 60 181 1.7 1.7 0.00 0.00 0.00 77 1020.1
20260901031135 60 191 0.9 1.7 0.00 0.00 0.00 77 1020.2
20260901030629 60 214 2.6 3.5 0.00 0.00 0.00 77 1020.0
20260901030124 60 260 2.6 2.6 0.00 0.00 0.00 78 1020.1
20260901025623 60 214 3.5 3.5 0.00 0.00 0.00 77 1020.1
20260901025119 61 218 5.2 7.8 0.00 0.00 0.00 76 1020.1
20260901024619 61 213 7.0 7.8 0.00 0.00 0.00 74 1019.9
20260901024117 62 206 7.0 8.7 0.00 0.00 0.00 71 1019.8
20260901023616 62 207 8.7 11.3 0.00 0.00 0.00 69 1019.5
20260901023111 62 215 2.6 6.1 0.00 0.00 0.00 68 1019.3
20260901022607 63 262 3.5 6.1 0.00 0.00 0.00 68 1019.4
20260901022102 64 218 2.6 3.5 0.00 0.00 0.00 66 1019.3
20260901021558 65 204 3.5 5.2 0.00 0.00 0.00 63 1019.4
20260901021052 66 253 4.3 5.2 0.00 0.00 0.00 61 1019.2
20260901020548 67 226 6.1 7.8 0.00 0.00 0.00 59 1019.0
20260901020043 70 211 4.3 7.0 0.00 0.00 0.00 53 1019.0
20260901015539 73 192 3.5 5.2 0.00 0.00 0.00 45 1019.0
20260901015039 74 195 2.6 2.6 0.00 0.00 0.00 41 1018.4
20260901014534 75 176 1.7 1.7 0.00 0.00 0.00 37 1017.8
20260901014030 75 140 0.0 0.9 0.00 0.00 0.00 36 1017.4
20260901013526 75 141 0.0 0.0 0.00 0.00 0.00 36 1017.5
20260901013021 75 136 0.9 1.7 0.00 0.00 0.00 37 1017.4
20260901012521 75 129 1.7 0.9 0.00 0.00 0.00 39 1017.4
20260901012016 75 128 0.0 0.0 0.00 0.00 0.00 39 1017.4
20260901011513 75 127 0.0 0.0 0.00 0.00 0.00 39 1017.5
20260901011010 75 127 0.9 0.9 0.00 0.00 0.00 40 1017.2
20260901010505 76 128 0.0 0.0 0.00 0.00 0.00 39 1017.5
20260901010005 76 128 0.0 0.0 0.00 0.00 0.00 37 1017.4
20260901005500 77 128 0.0 0.0 0.00 0.00 0.00 38 1017.4
20260901004954 77 128 0.9 0.9 0.00 0.00 0.00 37 1017.5
20260901004454 77 128 0.0 0.0 0.00 0.00 0.00 38 1017.5
20260901003949 78 138 0.9 0.9 0.00 0.00 0.00 38 1017.4
20260901003444 78 138 0.0 0.0 0.00 0.00 0.00 40 1017.2
20260901002942 78 141 0.0 0.9 0.00 0.00 0.00 42 1017.4
20260901002442 78 141 0.0 0.0 0.00 0.00 0.00 41 1017.5
20260901001937 78 137 0.0 0.0 0.00 0.00 0.00 42 1017.5
20260901001432 78 137 0.0 0.0 0.00 0.00 0.00 42 1017.5
20260901000927 78 135 0.0 0.0 0.00 0.00 0.00 42 1017.5
20260901000422 78 154 0.9 0.9 0.00 0.00 0.00 41 1017.4
20260831235921 78 155 0.9 1.7 0.00 0.00 0.00 41 1017.2
20260831235417 78 157 0.9 0.9 0.00 0.00 0.00 42 1017.5
20260831234918 78 157 0.0 0.0 0.00 0.00 0.00 41 1017.4
20260831234418 78 157 0.9 0.9 0.00 0.00 0.00 42 1017.2
20260831233913 78 158 0.0 0.0 0.00 0.00 0.00 42 1017.4
20260831233408 79 158 0.9 0.9 0.00 0.00 0.00 41 1017.5
20260831232903 79 173 0.9 0.9 0.00 0.00 0.00 39 1017.5
20260831232359 79 150 2.6 3.5 0.00 0.00 0.00 37 1017.4
20260831231855 79 141 1.7 1.7 0.00 0.00 0.00 38 1017.0
20260831231352 79 134 0.9 0.9 0.00 0.00 0.00 39 1017.0
20260831230847 79 148 0.9 0.9 0.00 0.00 0.00 39 1017.1
20260831230341 79 155 0.9 0.9 0.00 0.00 0.00 40 1017.0
20260831225841 79 158 0.9 0.9 0.00 0.00 0.00 38 1017.1
20260831225336 79 149 0.0 0.0 0.00 0.00 0.00 39 1016.9
20260831224832 79 145 0.9 0.9 0.00 0.00 0.00 37 1017.0
20260831224326 79 151 1.7 1.7 0.00 0.00 0.00 38 1017.0
20260831223821 79 152 0.9 0.9 0.00 0.00 0.00 40 1017.0
20260831223318 79 143 2.6 2.6 0.00 0.00 0.00 37 1017.2
20260831222815 79 146 0.9 0.9 0.00 0.00 0.00 38 1017.1
20260831222310 80 150 0.9 0.9 0.00 0.00 0.00 37 1017.2
20260831221805 80 152 1.7 0.9 0.00 0.00 0.00 38 1017.1
20260831221300 80 170 1.7 0.9 0.00 0.00 0.00 38 1017.1
20260831220800 80 146 1.7 1.7 0.00 0.00 0.00 37 1017.2
20260831220255 80 180 0.9 0.9 0.00 0.00 0.00 37 1017.1
20260831215750 81 167 1.7 1.7 0.00 0.00 0.00 36 1017.1
20260831215246 81 150 0.9 0.9 0.00 0.00 0.00 35 1017.4
20260831214743 81 180 1.7 1.7 0.00 0.00 0.00 32 1017.2
20260831214240 81 192 1.7 1.7 0.00 0.00 0.00 34 1017.2
20260831213735 82 154 1.7 1.7 0.00 0.00 0.00 35 1017.5
20260831213232 82 162 1.7 1.7 0.00 0.00 0.00 33 1017.6
20260831212726 83 185 2.6 2.6 0.00 0.00 0.00 31 1017.5
20260831212223 83 124 3.5 3.5 0.00 0.00 0.00 32 1017.6
20260831211721 83 171 1.7 1.7 0.00 0.00 0.00 31 1017.9
20260831211217 83 162 1.7 1.7 0.00 0.00 0.00 32 1017.8
20260831210717 84 168 0.9 1.7 0.00 0.00 0.00 32 1017.8
20260831210213 83 167 4.3 6.1 0.00 0.00 0.00 31 1017.8
20260831205712 83 171 1.7 1.7 0.00 0.00 0.00 30 1017.9
20260831205209 82 153 0.9 0.9 0.00 0.00 0.00 31 1018.2
20260831204709 82 192 1.7 2.6 0.00 0.00 0.00 31 1018.0
20260831204208 82 157 2.6 2.6 0.00 0.00 0.00 32 1018.4
20260831203702 83 196 2.6 2.6 0.00 0.00 0.00 29 1018.4
20260831203201 84 188 1.7 2.6 0.00 0.00 0.00 28 1018.5
20260831202700 83 154 1.7 0.9 0.00 0.00 0.00 29 1018.5
20260831202155 83 142 2.6 2.6 0.00 0.00 0.00 29 1018.4
20260831201655 83 207 1.7 1.7 0.00 0.00 0.00 28 1018.6
20260831201154 83 233 3.5 3.5 0.00 0.00 0.00 27 1018.9
20260831200651 82 128 1.7 1.7 0.00 0.00 0.00 29 1019.0
20260831200151 82 123 1.7 1.7 0.00 0.00 0.00 29 1018.9
20260831195646 82 178 1.7 1.7 0.00 0.00 0.00 29 1018.9
20260831195141 81 154 1.7 1.7 0.00 0.00 0.00 29 1018.9
20260831194636 80 128 1.7 1.7 0.00 0.00 0.00 30 1019.1
20260831194132 81 142 2.6 2.6 0.00 0.00 0.00 29 1019.1
20260831193632 80 143 0.9 1.7 0.00 0.00 0.00 31 1019.1
20260831193127 79 154 1.7 1.7 0.00 0.00 0.00 31 1019.2
20260831192622 79 213 0.9 1.7 0.00 0.00 0.00 32 1019.2
20260831192117 79 199 0.9 0.9 0.00 0.00 0.00 31 1019.4
20260831191614 78 149 2.6 2.6 0.00 0.00 0.00 30 1019.3
20260831191109 78 161 1.7 1.7 0.00 0.00 0.00 31 1019.5
20260831190604 78 214 0.9 0.9 0.00 0.00 0.00 29 1019.5
20260831185559 77 90 0.0 0.0 0.00 0.00 0.00 28 1019.7
20260831185054 77 225 0.9 0.9 0.00 0.00 0.00 28 1019.7
20260831184554 77 125 0.0 0.0 0.00 0.00 0.00 32 1019.8
20260831184049 76 125 0.0 0.0 0.00 0.00 0.00 30 1019.7
20260831183549 77 119 0.9 0.9 0.00 0.00 0.00 29 1019.9
20260831183049 78 112 1.7 1.7 0.00 0.00 0.00 29 1020.0
20260831182548 78 107 0.9 0.9 0.00 0.00 0.00 29 1020.1
20260831182044 78 169 0.9 0.9 0.00 0.00 0.00 30 1020.3
20260831181544 76 194 0.0 0.0 0.00 0.00 0.00 31 1020.3
20260831181044 74 204 0.0 0.0 0.00 0.00 0.00 31 1020.3
20260831180539 74 207 0.0 0.0 0.00 0.00 0.00 30 1020.5
20260831180034 74 281 0.0 0.0 0.00 0.00 0.00 29 1020.5
20260831175529 74 282 0.9 0.9 0.00 0.00 0.00 29 1020.3
20260831175027 73 124 0.0 0.0 0.00 0.00 0.00 33 1020.7
20260831174527 71 56 0.9 0.0 0.00 0.00 0.00 34 1020.5
20260831174026 71 191 1.7 1.7 0.00 0.00 0.00 33 1020.7
20260831173525 71 303 0.9 0.9 0.00 0.00 0.00 33 1020.7
20260831173021 70 303 0.9 0.9 0.00 0.00 0.00 33 1020.7
20260831172516 70 42 0.9 0.9 0.00 0.00 0.00 36 1020.7
20260831172011 69 183 0.0 0.0 0.00 0.00 0.00 37 1020.6
20260831171507 70 207 0.0 0.0 0.00 0.00 0.00 35 1020.7
20260831171004 69 149 0.9 1.7 0.00 0.00 0.00 37 1020.9
20260831170459 68 152 0.9 0.9 0.00 0.00 0.00 38 1020.9
20260831165956 68 151 0.0 0.0 0.00 0.00 0.00 39 1020.8
20260831165457 67 152 1.7 1.7 0.00 0.00 0.00 38 1020.8
20260831164954 67 144 0.9 0.9 0.00 0.00 0.00 39 1020.9
20260831164449 66 132 0.9 0.9 0.00 0.00 0.00 40 1021.0
20260831163944 66 114 0.9 0.9 0.00 0.00 0.00 41 1020.8
20260831163440 65 114 0.9 0.9 0.00 0.00 0.00 43 1021.0
20260831162938 65 114 0.9 0.9 0.00 0.00 0.00 42 1020.9
20260831162434 66 120 0.9 0.9 0.00 0.00 0.00 40 1021.2
20260831161932 64 121 0.9 0.9 0.00 0.00 0.00 41 1021.0
20260831161429 64 120 0.0 0.0 0.00 0.00 0.00 42 1021.0